owner,sensor,date,latitude,longitude,vertical_datum,sea_water_temperature,qcFlag 
ENP,ioos.station.NOAA.NDBC:DKKF1:1,2017-03-01T00:00:00Z,25.1800,-80.4900,1.0,25.88,2 
ENP,ioos.station.NOAA.NDBC:DKKF1:1,2017-03-01T01:00:00Z,25.1800,-80.4900,1.0,25.82,2 
ENP,ioos.station.NOAA.NDBC:DKKF1:1,2017-03-01T03:00:00Z,25.1800,-80.4900,1.0,25.6,11111222 
ENP,ioos.station.NOAA.NDBC:DKKF1:1,2017-03-01T04:00:00Z,25.1800,-80.4900,1.0,25.49,2 
ENP,ioos.station.NOAA.NDBC:DKKF1:1,2017-03-01T05:00:00Z,25.1800,-80.4900,1.0,25.4,11111222 
ENP,ioos.station.NOAA.NDBC:DKKF1:1,2017-03-01T06:00:00Z,25.1800,-80.4900,1.0,25.2,11111222 
ENP,ioos.station.NOAA.NDBC:DKKF1:1,2017-03-01T07:00:00Z,25.1800,-80.4900,1.0,25.11,2 
ENP,ioos.station.NOAA.NDBC:DKKF1:1,2017-03-01T08:00:00Z,25.1800,-80.4900,1.0,25.03,2 
ENP,ioos.station.NOAA.NDBC:DKKF1:1,2017-03-01T09:00:00Z,25.1800,-80.4900,1.0,24.93,2 
ENP,ioos.station.NOAA.NDBC:DKKF1:1,2017-03-01T10:00:00Z,25.1800,-80.4900,1.0,24.8,11111222 
ENP,ioos.station.NOAA.NDBC:DKKF1:1,2017-03-01T11:00:00Z,25.1800,-80.4900,1.0,24.68,2 
ENP,ioos.station.NOAA.NDBC:DKKF1:1,2017-03-01T12:00:00Z,25.1800,-80.4900,1.0,24.61,2 
ENP,ioos.station.NOAA.NDBC:DKKF1:1,2017-03-01T13:00:00Z,25.1800,-80.4900,1.0,24.53,2 
ENP,ioos.station.NOAA.NDBC:DKKF1:1,2017-03-01T14:00:00Z,25.1800,-80.4900,1.0,24.6,2 
ENP,ioos.station.NOAA.NDBC:DKKF1:1,2017-03-01T15:00:00Z,25.1800,-80.4900,1.0,24.75,2 
ENP,ioos.station.NOAA.NDBC:DKKF1:1,2017-03-01T16:00:00Z,25.1800,-80.4900,1.0,24.94,2 
ENP,ioos.station.NOAA.NDBC:DKKF1:1,2017-03-01T17:00:00Z,25.1800,-80.4900,1.0,25.23,2 
ENP,ioos.station.NOAA.NDBC:DKKF1:1,2017-03-01T18:00:00Z,25.1800,-80.4900,1.0,25.55,2 
ENP,ioos.station.NOAA.NDBC:DKKF1:1,2017-03-01T19:00:00Z,25.1800,-80.4900,1.0,25.87,2 
ENP,ioos.station.NOAA.NDBC:DKKF1:1,2017-03-01T20:00:00Z,25.1800,-80.4900,1.0,26.18,2 
ENP,ioos.station.NOAA.NDBC:DKKF1:1,2017-03-01T21:00:00Z,25.1800,-80.4900,1.0,26.34,2 
ENP,ioos.station.NOAA.NDBC:DKKF1:1,2017-03-01T22:00:00Z,25.1800,-80.4900,1.0,26.4,11111222 
ENP,ioos.station.NOAA.NDBC:DKKF1:1,2017-03-01T23:00:00Z,25.1800,-80.4900,1.0,26.4,2 
ENP,ioos.station.NOAA.NDBC:DKKF1:1,2017-03-02T00:00:00Z,25.1800,-80.4900,1.0,26.29,2 
ENP,ioos.station.NOAA.NDBC:DKKF1:1,2017-03-02T01:00:00Z,25.1800,-80.4900,1.0,26.17,2 
ENP,ioos.station.NOAA.NDBC:DKKF1:1,2017-03-02T03:00:00Z,25.1800,-80.4900,1.0,25.9,11111222 
ENP,ioos.station.NOAA.NDBC:DKKF1:1,2017-03-02T04:00:00Z,25.1800,-80.4900,1.0,25.87,2 
ENP,ioos.station.NOAA.NDBC:DKKF1:1,2017-03-02T05:00:00Z,25.1800,-80.4900,1.0,25.7,11111222 
ENP,ioos.station.NOAA.NDBC:DKKF1:1,2017-03-02T06:00:00Z,25.1800,-80.4900,1.0,25.7,11111222 
ENP,ioos.station.NOAA.NDBC:DKKF1:1,2017-03-02T07:00:00Z,25.1800,-80.4900,1.0,25.51,2 
ENP,ioos.station.NOAA.NDBC:DKKF1:1,2017-03-02T08:00:00Z,25.1800,-80.4900,1.0,25.47,2 
ENP,ioos.station.NOAA.NDBC:DKKF1:1,2017-03-02T09:00:00Z,25.1800,-80.4900,1.0,25.39,2 
ENP,ioos.station.NOAA.NDBC:DKKF1:1,2017-03-02T10:00:00Z,25.1800,-80.4900,1.0,25.3,11111222 
ENP,ioos.station.NOAA.NDBC:DKKF1:1,2017-03-02T11:00:00Z,25.1800,-80.4900,1.0,25.28,2 
ENP,ioos.station.NOAA.NDBC:DKKF1:1,2017-03-02T12:00:00Z,25.1800,-80.4900,1.0,25.24,2 
ENP,ioos.station.NOAA.NDBC:DKKF1:1,2017-03-02T13:00:00Z,25.1800,-80.4900,1.0,25.23,2 
ENP,ioos.station.NOAA.NDBC:DKKF1:1,2017-03-02T14:00:00Z,25.1800,-80.4900,1.0,25.24,2 
ENP,ioos.station.NOAA.NDBC:DKKF1:1,2017-03-02T15:00:00Z,25.1800,-80.4900,1.0,25.33,2 
ENP,ioos.station.NOAA.NDBC:DKKF1:1,2017-03-02T16:00:00Z,25.1800,-80.4900,1.0,25.5,11111222 
ENP,ioos.station.NOAA.NDBC:DKKF1:1,2017-03-02T17:00:00Z,25.1800,-80.4900,1.0,25.63,2 
ENP,ioos.station.NOAA.NDBC:DKKF1:1,2017-03-03T12:00:00Z,25.1800,-80.4900,1.0,24.9,11111222 
ENP,ioos.station.NOAA.NDBC:DKKF1:1,2017-03-03T13:00:00Z,25.1800,-80.4900,1.0,24.76,2 
ENP,ioos.station.NOAA.NDBC:DKKF1:1,2017-03-03T14:00:00Z,25.1800,-80.4900,1.0,24.74,2 
ENP,ioos.station.NOAA.NDBC:DKKF1:1,2017-03-03T15:00:00Z,25.1800,-80.4900,1.0,24.82,2 
ENP,ioos.station.NOAA.NDBC:DKKF1:1,2017-03-03T16:00:00Z,25.1800,-80.4900,1.0,25.01,2 
ENP,ioos.station.NOAA.NDBC:DKKF1:1,2017-03-03T17:00:00Z,25.1800,-80.4900,1.0,25.25,2 
ENP,ioos.station.NOAA.NDBC:DKKF1:1,2017-03-03T18:00:00Z,25.1800,-80.4900,1.0,25.58,2 
ENP,ioos.station.NOAA.NDBC:DKKF1:1,2017-03-03T19:00:00Z,25.1800,-80.4900,1.0,25.88,2 
ENP,ioos.station.NOAA.NDBC:DKKF1:1,2017-03-03T20:00:00Z,25.1800,-80.4900,1.0,26.1,2 
ENP,ioos.station.NOAA.NDBC:DKKF1:1,2017-03-03T21:00:00Z,25.1800,-80.4900,1.0,26.15,2 
ENP,ioos.station.NOAA.NDBC:DKKF1:1,2017-03-03T22:00:00Z,25.1800,-80.4900,1.0,25.9,11111222 
ENP,ioos.station.NOAA.NDBC:DKKF1:1,2017-03-03T23:00:00Z,25.1800,-80.4900,1.0,25.79,2 
ENP,ioos.station.NOAA.NDBC:DKKF1:1,2017-03-04T00:00:00Z,25.1800,-80.4900,1.0,25.59,2 
ENP,ioos.station.NOAA.NDBC:DKKF1:1,2017-03-04T01:00:00Z,25.1800,-80.4900,1.0,25.35,2 
ENP,ioos.station.NOAA.NDBC:DKKF1:1,2017-03-04T06:00:00Z,25.1800,-80.4900,1.0,24.1,11111222 
ENP,ioos.station.NOAA.NDBC:DKKF1:1,2017-03-04T07:00:00Z,25.1800,-80.4900,1.0,23.78,2 
ENP,ioos.station.NOAA.NDBC:DKKF1:1,2017-03-04T08:00:00Z,25.1800,-80.4900,1.0,23.45,2 
ENP,ioos.station.NOAA.NDBC:DKKF1:1,2017-03-04T09:00:00Z,25.1800,-80.4900,1.0,23.16,2 
ENP,ioos.station.NOAA.NDBC:DKKF1:1,2017-03-04T10:00:00Z,25.1800,-80.4900,1.0,22.9,11111222 
ENP,ioos.station.NOAA.NDBC:DKKF1:1,2017-03-04T11:00:00Z,25.1800,-80.4900,1.0,22.74,2 
ENP,ioos.station.NOAA.NDBC:DKKF1:1,2017-03-04T12:00:00Z,25.1800,-80.4900,1.0,22.53,2 
ENP,ioos.station.NOAA.NDBC:DKKF1:1,2017-03-04T13:00:00Z,25.1800,-80.4900,1.0,22.26,2 
ENP,ioos.station.NOAA.NDBC:DKKF1:1,2017-03-04T14:00:00Z,25.1800,-80.4900,1.0,22.22,2 
ENP,ioos.station.NOAA.NDBC:DKKF1:1,2017-03-04T15:00:00Z,25.1800,-80.4900,1.0,22.21,2 
ENP,ioos.station.NOAA.NDBC:DKKF1:1,2017-03-04T16:00:00Z,25.1800,-80.4900,1.0,22.33,2 
ENP,ioos.station.NOAA.NDBC:DKKF1:1,2017-03-04T17:00:00Z,25.1800,-80.4900,1.0,22.62,2 
ENP,ioos.station.NOAA.NDBC:DKKF1:1,2017-03-04T18:00:00Z,25.1800,-80.4900,1.0,22.82,2 
ENP,ioos.station.NOAA.NDBC:DKKF1:1,2017-03-04T19:00:00Z,25.1800,-80.4900,1.0,22.95,2 
ENP,ioos.station.NOAA.NDBC:DKKF1:1,2017-03-04T20:00:00Z,25.1800,-80.4900,1.0,23.02,2 
ENP,ioos.station.NOAA.NDBC:DKKF1:1,2017-03-04T21:00:00Z,25.1800,-80.4900,1.0,22.99,2 
ENP,ioos.station.NOAA.NDBC:DKKF1:1,2017-03-04T22:00:00Z,25.1800,-80.4900,1.0,22.93,2 
ENP,ioos.station.NOAA.NDBC:DKKF1:1,2017-03-04T23:00:00Z,25.1800,-80.4900,1.0,22.78,2 
ENP,ioos.station.NOAA.NDBC:DKKF1:1,2017-03-05T00:00:00Z,25.1800,-80.4900,1.0,22.55,2 
ENP,ioos.station.NOAA.NDBC:DKKF1:1,2017-03-05T01:00:00Z,25.1800,-80.4900,1.0,22.33,2 
ENP,ioos.station.NOAA.NDBC:DKKF1:1,2017-03-05T03:00:00Z,25.1800,-80.4900,1.0,21.8,11111222 
ENP,ioos.station.NOAA.NDBC:DKKF1:1,2017-03-05T04:00:00Z,25.1800,-80.4900,1.0,21.59,2 
ENP,ioos.station.NOAA.NDBC:DKKF1:1,2017-03-05T06:00:00Z,25.1800,-80.4900,1.0,21.3,11111222 
ENP,ioos.station.NOAA.NDBC:DKKF1:1,2017-03-05T07:00:00Z,25.1800,-80.4900,1.0,21.06,2 
ENP,ioos.station.NOAA.NDBC:DKKF1:1,2017-03-05T08:00:00Z,25.1800,-80.4900,1.0,20.84,2 
ENP,ioos.station.NOAA.NDBC:DKKF1:1,2017-03-05T09:00:00Z,25.1800,-80.4900,1.0,20.66,2 
ENP,ioos.station.NOAA.NDBC:DKKF1:1,2017-03-05T10:00:00Z,25.1800,-80.4900,1.0,20.5,11111222 
ENP,ioos.station.NOAA.NDBC:DKKF1:1,2017-03-05T11:00:00Z,25.1800,-80.4900,1.0,20.37,2 
ENP,ioos.station.NOAA.NDBC:DKKF1:1,2017-03-05T12:00:00Z,25.1800,-80.4900,1.0,20.22,2 
ENP,ioos.station.NOAA.NDBC:DKKF1:1,2017-03-05T13:00:00Z,25.1800,-80.4900,1.0,20.1,2 
ENP,ioos.station.NOAA.NDBC:DKKF1:1,2017-03-05T14:00:00Z,25.1800,-80.4900,1.0,20.07,2 
ENP,ioos.station.NOAA.NDBC:DKKF1:1,2017-03-05T15:00:00Z,25.1800,-80.4900,1.0,20.14,2 
ENP,ioos.station.NOAA.NDBC:DKKF1:1,2017-03-05T16:00:00Z,25.1800,-80.4900,1.0,20.32,2 
ENP,ioos.station.NOAA.NDBC:DKKF1:1,2017-03-05T17:00:00Z,25.1800,-80.4900,1.0,20.55,2 
ENP,ioos.station.NOAA.NDBC:DKKF1:1,2017-03-05T18:00:00Z,25.1800,-80.4900,1.0,20.82,2 
ENP,ioos.station.NOAA.NDBC:DKKF1:1,2017-03-05T19:00:00Z,25.1800,-80.4900,1.0,21.04,2 
ENP,ioos.station.NOAA.NDBC:DKKF1:1,2017-03-05T20:00:00Z,25.1800,-80.4900,1.0,21.23,2 
ENP,ioos.station.NOAA.NDBC:DKKF1:1,2017-03-05T21:00:00Z,25.1800,-80.4900,1.0,21.29,2 
ENP,ioos.station.NOAA.NDBC:DKKF1:1,2017-03-05T22:00:00Z,25.1800,-80.4900,1.0,21.17,2 
ENP,ioos.station.NOAA.NDBC:DKKF1:1,2017-03-05T23:00:00Z,25.1800,-80.4900,1.0,21.0,2 
ENP,ioos.station.NOAA.NDBC:DKKF1:1,2017-03-06T00:00:00Z,25.1800,-80.4900,1.0,20.76,2 
ENP,ioos.station.NOAA.NDBC:DKKF1:1,2017-03-06T01:00:00Z,25.1800,-80.4900,1.0,20.59,2 
ENP,ioos.station.NOAA.NDBC:DKKF1:1,2017-03-06T03:00:00Z,25.1800,-80.4900,1.0,20.2,11111222 
ENP,ioos.station.NOAA.NDBC:DKKF1:1,2017-03-06T04:00:00Z,25.1800,-80.4900,1.0,20.09,2 
ENP,ioos.station.NOAA.NDBC:DKKF1:1,2017-03-06T05:00:00Z,25.1800,-80.4900,1.0,20.0,11111222 
ENP,ioos.station.NOAA.NDBC:DKKF1:1,2017-03-06T06:00:00Z,25.1800,-80.4900,1.0,19.8,11111222 
ENP,ioos.station.NOAA.NDBC:DKKF1:1,2017-03-06T07:00:00Z,25.1800,-80.4900,1.0,19.65,2 
ENP,ioos.station.NOAA.NDBC:DKKF1:1,2017-03-06T08:00:00Z,25.1800,-80.4900,1.0,19.54,2 
ENP,ioos.station.NOAA.NDBC:DKKF1:1,2017-03-06T09:00:00Z,25.1800,-80.4900,1.0,19.41,2 
ENP,ioos.station.NOAA.NDBC:DKKF1:1,2017-03-06T10:00:00Z,25.1800,-80.4900,1.0,19.24,2 
ENP,ioos.station.NOAA.NDBC:DKKF1:1,2017-03-06T11:00:00Z,25.1800,-80.4900,1.0,19.2,11111222 
ENP,ioos.station.NOAA.NDBC:DKKF1:1,2017-03-06T12:00:00Z,25.1800,-80.4900,1.0,19.08,2 
ENP,ioos.station.NOAA.NDBC:DKKF1:1,2017-03-06T13:00:00Z,25.1800,-80.4900,1.0,19.02,2 
ENP,ioos.station.NOAA.NDBC:DKKF1:1,2017-03-06T14:00:00Z,25.1800,-80.4900,1.0,19.08,2 
ENP,ioos.station.NOAA.NDBC:DKKF1:1,2017-03-06T15:00:00Z,25.1800,-80.4900,1.0,19.11,2 
ENP,ioos.station.NOAA.NDBC:DKKF1:1,2017-03-06T16:00:00Z,25.1800,-80.4900,1.0,19.32,2 
ENP,ioos.station.NOAA.NDBC:DKKF1:1,2017-03-06T17:00:00Z,25.1800,-80.4900,1.0,19.54,2 
ENP,ioos.station.NOAA.NDBC:DKKF1:1,2017-03-06T18:00:00Z,25.1800,-80.4900,1.0,19.79,2 
ENP,ioos.station.NOAA.NDBC:DKKF1:1,2017-03-06T19:00:00Z,25.1800,-80.4900,1.0,20.07,2 
ENP,ioos.station.NOAA.NDBC:DKKF1:1,2017-03-06T20:00:00Z,25.1800,-80.4900,1.0,20.4,2 
ENP,ioos.station.NOAA.NDBC:DKKF1:1,2017-03-06T21:00:00Z,25.1800,-80.4900,1.0,20.46,2 
ENP,ioos.station.NOAA.NDBC:DKKF1:1,2017-03-06T22:00:00Z,25.1800,-80.4900,1.0,20.48,2 
ENP,ioos.station.NOAA.NDBC:DKKF1:1,2017-03-06T23:00:00Z,25.1800,-80.4900,1.0,20.36,2 
ENP,ioos.station.NOAA.NDBC:DKKF1:1,2017-03-07T00:00:00Z,25.1800,-80.4900,1.0,20.24,2 
ENP,ioos.station.NOAA.NDBC:DKKF1:1,2017-03-07T01:00:00Z,25.1800,-80.4900,1.0,20.15,2 
ENP,ioos.station.NOAA.NDBC:DKKF1:1,2017-03-07T03:00:00Z,25.1800,-80.4900,1.0,20.0,11111222 
ENP,ioos.station.NOAA.NDBC:DKKF1:1,2017-03-07T04:00:00Z,25.1800,-80.4900,1.0,20.0,2 
ENP,ioos.station.NOAA.NDBC:DKKF1:1,2017-03-07T06:00:00Z,25.1800,-80.4900,1.0,19.9,11111222 
ENP,ioos.station.NOAA.NDBC:DKKF1:1,2017-03-07T07:00:00Z,25.1800,-80.4900,1.0,19.8,2 
ENP,ioos.station.NOAA.NDBC:DKKF1:1,2017-03-07T08:00:00Z,25.1800,-80.4900,1.0,19.68,2 
ENP,ioos.station.NOAA.NDBC:DKKF1:1,2017-03-07T09:00:00Z,25.1800,-80.4900,1.0,19.57,2 
ENP,ioos.station.NOAA.NDBC:DKKF1:1,2017-03-07T10:00:00Z,25.1800,-80.4900,1.0,19.46,2 
ENP,ioos.station.NOAA.NDBC:DKKF1:1,2017-03-07T11:00:00Z,25.1800,-80.4900,1.0,19.5,11111222 
ENP,ioos.station.NOAA.NDBC:DKKF1:1,2017-03-07T12:00:00Z,25.1800,-80.4900,1.0,19.41,2 
ENP,ioos.station.NOAA.NDBC:DKKF1:1,2017-03-07T13:00:00Z,25.1800,-80.4900,1.0,19.35,2 
ENP,ioos.station.NOAA.NDBC:DKKF1:1,2017-03-07T14:00:00Z,25.1800,-80.4900,1.0,19.43,2 
ENP,ioos.station.NOAA.NDBC:DKKF1:1,2017-03-07T15:00:00Z,25.1800,-80.4900,1.0,19.56,2 
ENP,ioos.station.NOAA.NDBC:DKKF1:1,2017-03-07T16:00:00Z,25.1800,-80.4900,1.0,19.83,2 
ENP,ioos.station.NOAA.NDBC:DKKF1:1,2017-03-07T17:00:00Z,25.1800,-80.4900,1.0,20.15,2 
ENP,ioos.station.NOAA.NDBC:DKKF1:1,2017-03-07T18:00:00Z,25.1800,-80.4900,1.0,20.4,2 
ENP,ioos.station.NOAA.NDBC:DKKF1:1,2017-03-07T19:00:00Z,25.1800,-80.4900,1.0,20.8,2 
ENP,ioos.station.NOAA.NDBC:DKKF1:1,2017-03-07T20:00:00Z,25.1800,-80.4900,1.0,20.95,2 
ENP,ioos.station.NOAA.NDBC:DKKF1:1,2017-03-07T21:00:00Z,25.1800,-80.4900,1.0,21.1,11111222 
ENP,ioos.station.NOAA.NDBC:DKKF1:1,2017-03-07T22:00:00Z,25.1800,-80.4900,1.0,21.2,11111222 
ENP,ioos.station.NOAA.NDBC:DKKF1:1,2017-03-07T23:00:00Z,25.1800,-80.4900,1.0,21.2,11111222 
ENP,ioos.station.NOAA.NDBC:DKKF1:1,2017-03-08T00:00:00Z,25.1800,-80.4900,1.0,21.2,11111222 
ENP,ioos.station.NOAA.NDBC:DKKF1:1,2017-03-08T01:00:00Z,25.1800,-80.4900,1.0,21.0,2 
ENP,ioos.station.NOAA.NDBC:DKKF1:1,2017-03-08T03:00:00Z,25.1800,-80.4900,1.0,20.9,11111222 
ENP,ioos.station.NOAA.NDBC:DKKF1:1,2017-03-08T04:00:00Z,25.1800,-80.4900,1.0,20.79,2 
ENP,ioos.station.NOAA.NDBC:DKKF1:1,2017-03-08T06:00:00Z,25.1800,-80.4900,1.0,20.7,11111222 
ENP,ioos.station.NOAA.NDBC:DKKF1:1,2017-03-08T07:00:00Z,25.1800,-80.4900,1.0,20.63,2 
ENP,ioos.station.NOAA.NDBC:DKKF1:1,2017-03-08T08:00:00Z,25.1800,-80.4900,1.0,20.6,11111222 
ENP,ioos.station.NOAA.NDBC:DKKF1:1,2017-03-08T09:00:00Z,25.1800,-80.4900,1.0,20.6,11111222 
ENP,ioos.station.NOAA.NDBC:DKKF1:1,2017-03-08T10:00:00Z,25.1800,-80.4900,1.0,20.6,11111222 
ENP,ioos.station.NOAA.NDBC:DKKF1:1,2017-03-08T11:00:00Z,25.1800,-80.4900,1.0,20.5,2 
ENP,ioos.station.NOAA.NDBC:DKKF1:1,2017-03-08T12:00:00Z,25.1800,-80.4900,1.0,20.5,11111222 
ENP,ioos.station.NOAA.NDBC:DKKF1:1,2017-03-08T13:00:00Z,25.1800,-80.4900,1.0,20.47,2 
ENP,ioos.station.NOAA.NDBC:DKKF1:1,2017-03-08T14:00:00Z,25.1800,-80.4900,1.0,20.53,2 
ENP,ioos.station.NOAA.NDBC:DKKF1:1,2017-03-08T15:00:00Z,25.1800,-80.4900,1.0,20.7,2 
ENP,ioos.station.NOAA.NDBC:DKKF1:1,2017-03-08T16:00:00Z,25.1800,-80.4900,1.0,20.96,2 
ENP,ioos.station.NOAA.NDBC:DKKF1:1,2017-03-08T17:00:00Z,25.1800,-80.4900,1.0,21.34,2 
ENP,ioos.station.NOAA.NDBC:DKKF1:1,2017-03-08T18:00:00Z,25.1800,-80.4900,1.0,21.7,2 
ENP,ioos.station.NOAA.NDBC:DKKF1:1,2017-03-08T19:00:00Z,25.1800,-80.4900,1.0,22.17,2 
ENP,ioos.station.NOAA.NDBC:DKKF1:1,2017-03-08T20:00:00Z,25.1800,-80.4900,1.0,22.62,2 
ENP,ioos.station.NOAA.NDBC:DKKF1:1,2017-03-08T21:00:00Z,25.1800,-80.4900,1.0,22.88,2 
ENP,ioos.station.NOAA.NDBC:DKKF1:1,2017-03-08T22:00:00Z,25.1800,-80.4900,1.0,23.07,2 
ENP,ioos.station.NOAA.NDBC:DKKF1:1,2017-03-08T23:00:00Z,25.1800,-80.4900,1.0,23.1,11111222 
ENP,ioos.station.NOAA.NDBC:DKKF1:1,2017-03-09T00:00:00Z,25.1800,-80.4900,1.0,22.98,2 
ENP,ioos.station.NOAA.NDBC:DKKF1:1,2017-03-09T01:00:00Z,25.1800,-80.4900,1.0,22.9,2 
ENP,ioos.station.NOAA.NDBC:DKKF1:1,2017-03-09T03:00:00Z,25.1800,-80.4900,1.0,22.65,2 
ENP,ioos.station.NOAA.NDBC:DKKF1:1,2017-03-09T04:00:00Z,25.1800,-80.4900,1.0,22.5,11111222 
ENP,ioos.station.NOAA.NDBC:DKKF1:1,2017-03-09T06:00:00Z,25.1800,-80.4900,1.0,22.4,11111222 
ENP,ioos.station.NOAA.NDBC:DKKF1:1,2017-03-09T07:00:00Z,25.1800,-80.4900,1.0,22.26,2 
ENP,ioos.station.NOAA.NDBC:DKKF1:1,2017-03-09T08:00:00Z,25.1800,-80.4900,1.0,22.3,11111222 
ENP,ioos.station.NOAA.NDBC:DKKF1:1,2017-03-09T09:00:00Z,25.1800,-80.4900,1.0,22.2,11111222 
ENP,ioos.station.NOAA.NDBC:DKKF1:1,2017-03-09T10:00:00Z,25.1800,-80.4900,1.0,22.07,2 
ENP,ioos.station.NOAA.NDBC:DKKF1:1,2017-03-09T11:00:00Z,25.1800,-80.4900,1.0,22.0,11111222 
ENP,ioos.station.NOAA.NDBC:DKKF1:1,2017-03-09T12:00:00Z,25.1800,-80.4900,1.0,21.9,11111222 
ENP,ioos.station.NOAA.NDBC:DKKF1:1,2017-03-09T13:00:00Z,25.1800,-80.4900,1.0,21.92,2 
ENP,ioos.station.NOAA.NDBC:DKKF1:1,2017-03-09T14:00:00Z,25.1800,-80.4900,1.0,22.2,11111222 
ENP,ioos.station.NOAA.NDBC:DKKF1:1,2017-03-09T15:00:00Z,25.1800,-80.4900,1.0,22.3,11111222 
ENP,ioos.station.NOAA.NDBC:DKKF1:1,2017-03-09T16:00:00Z,25.1800,-80.4900,1.0,22.5,11111222 
ENP,ioos.station.NOAA.NDBC:DKKF1:1,2017-03-09T17:00:00Z,25.1800,-80.4900,1.0,22.8,11111222 
ENP,ioos.station.NOAA.NDBC:DKKF1:1,2017-03-09T18:00:00Z,25.1800,-80.4900,1.0,23.14,2 
ENP,ioos.station.NOAA.NDBC:DKKF1:1,2017-03-09T19:00:00Z,25.1800,-80.4900,1.0,23.56,2 
ENP,ioos.station.NOAA.NDBC:DKKF1:1,2017-03-09T20:00:00Z,25.1800,-80.4900,1.0,23.91,2 
ENP,ioos.station.NOAA.NDBC:DKKF1:1,2017-03-09T21:00:00Z,25.1800,-80.4900,1.0,24.27,2 
ENP,ioos.station.NOAA.NDBC:DKKF1:1,2017-03-09T22:00:00Z,25.1800,-80.4900,1.0,24.48,2 
ENP,ioos.station.NOAA.NDBC:DKKF1:1,2017-03-09T23:00:00Z,25.1800,-80.4900,1.0,24.39,2 
ENP,ioos.station.NOAA.NDBC:DKKF1:1,2017-03-10T00:00:00Z,25.1800,-80.4900,1.0,24.21,2 
ENP,ioos.station.NOAA.NDBC:DKKF1:1,2017-03-10T01:00:00Z,25.1800,-80.4900,1.0,24.1,11111222 
ENP,ioos.station.NOAA.NDBC:DKKF1:1,2017-03-10T06:00:00Z,25.1800,-80.4900,1.0,23.5,11111222 
ENP,ioos.station.NOAA.NDBC:DKKF1:1,2017-03-10T07:00:00Z,25.1800,-80.4900,1.0,23.41,2 
ENP,ioos.station.NOAA.NDBC:DKKF1:1,2017-03-10T08:00:00Z,25.1800,-80.4900,1.0,23.5,11111222 
ENP,ioos.station.NOAA.NDBC:DKKF1:1,2017-03-10T09:00:00Z,25.1800,-80.4900,1.0,23.4,11111222 
ENP,ioos.station.NOAA.NDBC:DKKF1:1,2017-03-10T10:00:00Z,25.1800,-80.4900,1.0,23.3,11111222 
ENP,ioos.station.NOAA.NDBC:DKKF1:1,2017-03-10T11:00:00Z,25.1800,-80.4900,1.0,23.14,2 
ENP,ioos.station.NOAA.NDBC:DKKF1:1,2017-03-10T12:00:00Z,25.1800,-80.4900,1.0,23.0,11111222 
ENP,ioos.station.NOAA.NDBC:DKKF1:1,2017-03-10T13:00:00Z,25.1800,-80.4900,1.0,22.88,2 
ENP,ioos.station.NOAA.NDBC:DKKF1:1,2017-03-10T14:00:00Z,25.1800,-80.4900,1.0,23.0,11111222 
ENP,ioos.station.NOAA.NDBC:DKKF1:1,2017-03-10T15:00:00Z,25.1800,-80.4900,1.0,23.2,11111222 
ENP,ioos.station.NOAA.NDBC:DKKF1:1,2017-03-10T16:00:00Z,25.1800,-80.4900,1.0,23.3,11111222 
ENP,ioos.station.NOAA.NDBC:DKKF1:1,2017-03-10T17:00:00Z,25.1800,-80.4900,1.0,23.6,11111222 
ENP,ioos.station.NOAA.NDBC:DKKF1:1,2017-03-10T18:00:00Z,25.1800,-80.4900,1.0,23.86,2 
ENP,ioos.station.NOAA.NDBC:DKKF1:1,2017-03-10T19:00:00Z,25.1800,-80.4900,1.0,24.2,11111222 
ENP,ioos.station.NOAA.NDBC:DKKF1:1,2017-03-10T20:00:00Z,25.1800,-80.4900,1.0,24.51,2 
ENP,ioos.station.NOAA.NDBC:DKKF1:1,2017-03-10T21:00:00Z,25.1800,-80.4900,1.0,24.9,11111222 
ENP,ioos.station.NOAA.NDBC:DKKF1:1,2017-03-10T22:00:00Z,25.1800,-80.4900,1.0,25.14,2 
ENP,ioos.station.NOAA.NDBC:DKKF1:1,2017-03-10T23:00:00Z,25.1800,-80.4900,1.0,25.42,2 
ENP,ioos.station.NOAA.NDBC:DKKF1:1,2017-03-11T00:00:00Z,25.1800,-80.4900,1.0,25.19,2 
ENP,ioos.station.NOAA.NDBC:DKKF1:1,2017-03-11T01:00:00Z,25.1800,-80.4900,1.0,24.86,2 
ENP,ioos.station.NOAA.NDBC:DKKF1:1,2017-03-11T06:00:00Z,25.1800,-80.4900,1.0,24.2,11111222 
ENP,ioos.station.NOAA.NDBC:DKKF1:1,2017-03-11T07:00:00Z,25.1800,-80.4900,1.0,24.0,11111222 
ENP,ioos.station.NOAA.NDBC:DKKF1:1,2017-03-11T08:00:00Z,25.1800,-80.4900,1.0,23.92,2 
ENP,ioos.station.NOAA.NDBC:DKKF1:1,2017-03-11T09:00:00Z,25.1800,-80.4900,1.0,23.8,11111222 
ENP,ioos.station.NOAA.NDBC:DKKF1:1,2017-03-11T10:00:00Z,25.1800,-80.4900,1.0,23.9,11111222 
ENP,ioos.station.NOAA.NDBC:DKKF1:1,2017-03-11T11:00:00Z,25.1800,-80.4900,1.0,23.74,2 
ENP,ioos.station.NOAA.NDBC:DKKF1:1,2017-03-11T12:00:00Z,25.1800,-80.4900,1.0,23.55,2 
ENP,ioos.station.NOAA.NDBC:DKKF1:1,2017-03-11T13:00:00Z,25.1800,-80.4900,1.0,23.42,2 
ENP,ioos.station.NOAA.NDBC:DKKF1:1,2017-03-11T14:00:00Z,25.1800,-80.4900,1.0,23.48,2 
ENP,ioos.station.NOAA.NDBC:DKKF1:1,2017-03-11T15:00:00Z,25.1800,-80.4900,1.0,23.63,2 
ENP,ioos.station.NOAA.NDBC:DKKF1:1,2017-03-11T16:00:00Z,25.1800,-80.4900,1.0,23.8,11111222 
ENP,ioos.station.NOAA.NDBC:DKKF1:1,2017-03-11T17:00:00Z,25.1800,-80.4900,1.0,24.04,2 
ENP,ioos.station.NOAA.NDBC:DKKF1:1,2017-03-11T18:00:00Z,25.1800,-80.4900,1.0,24.38,2 
ENP,ioos.station.NOAA.NDBC:DKKF1:1,2017-03-11T19:00:00Z,25.1800,-80.4900,1.0,24.74,2 
ENP,ioos.station.NOAA.NDBC:DKKF1:1,2017-03-11T20:00:00Z,25.1800,-80.4900,1.0,25.12,2 
ENP,ioos.station.NOAA.NDBC:DKKF1:1,2017-03-11T21:00:00Z,25.1800,-80.4900,1.0,25.45,2 
ENP,ioos.station.NOAA.NDBC:DKKF1:1,2017-03-11T22:00:00Z,25.1800,-80.4900,1.0,25.5,2 
ENP,ioos.station.NOAA.NDBC:DKKF1:1,2017-03-11T23:00:00Z,25.1800,-80.4900,1.0,25.5,11111222 
ENP,ioos.station.NOAA.NDBC:DKKF1:1,2017-03-12T00:00:00Z,25.1800,-80.4900,1.0,25.4,11111222 
ENP,ioos.station.NOAA.NDBC:DKKF1:1,2017-03-12T01:00:00Z,25.1800,-80.4900,1.0,25.28,2 
ENP,ioos.station.NOAA.NDBC:DKKF1:1,2017-03-12T03:00:00Z,25.1800,-80.4900,1.0,25.2,11111222 
ENP,ioos.station.NOAA.NDBC:DKKF1:1,2017-03-12T04:00:00Z,25.1800,-80.4900,1.0,25.0,11111222 
ENP,ioos.station.NOAA.NDBC:DKKF1:1,2017-03-12T12:00:00Z,25.1800,-80.4900,1.0,24.26,2 
ENP,ioos.station.NOAA.NDBC:DKKF1:1,2017-03-12T13:00:00Z,25.1800,-80.4900,1.0,24.26,2 
ENP,ioos.station.NOAA.NDBC:DKKF1:1,2017-03-12T14:00:00Z,25.1800,-80.4900,1.0,24.3,2 
ENP,ioos.station.NOAA.NDBC:DKKF1:1,2017-03-12T15:00:00Z,25.1800,-80.4900,1.0,24.26,2 
ENP,ioos.station.NOAA.NDBC:DKKF1:1,2017-03-12T16:00:00Z,25.1800,-80.4900,1.0,24.19,2 
ENP,ioos.station.NOAA.NDBC:DKKF1:1,2017-03-12T17:00:00Z,25.1800,-80.4900,1.0,24.19,2 
ENP,ioos.station.NOAA.NDBC:DKKF1:1,2017-03-12T18:00:00Z,25.1800,-80.4900,1.0,24.4,2 
ENP,ioos.station.NOAA.NDBC:DKKF1:1,2017-03-12T19:00:00Z,25.1800,-80.4900,1.0,24.9,2 
ENP,ioos.station.NOAA.NDBC:DKKF1:1,2017-03-12T20:00:00Z,25.1800,-80.4900,1.0,25.2,11111222 
ENP,ioos.station.NOAA.NDBC:DKKF1:1,2017-03-12T21:00:00Z,25.1800,-80.4900,1.0,25.3,11111222 
ENP,ioos.station.NOAA.NDBC:DKKF1:1,2017-03-12T22:00:00Z,25.1800,-80.4900,1.0,25.4,11111222 
ENP,ioos.station.NOAA.NDBC:DKKF1:1,2017-03-12T23:00:00Z,25.1800,-80.4900,1.0,25.5,11111222 
ENP,ioos.station.NOAA.NDBC:DKKF1:1,2017-03-13T00:00:00Z,25.1800,-80.4900,1.0,25.4,11111222 
ENP,ioos.station.NOAA.NDBC:DKKF1:1,2017-03-13T03:00:00Z,25.1800,-80.4900,1.0,25.21,2 
ENP,ioos.station.NOAA.NDBC:DKKF1:1,2017-03-13T05:00:00Z,25.1800,-80.4900,1.0,24.97,2 
ENP,ioos.station.NOAA.NDBC:DKKF1:1,2017-03-13T06:00:00Z,25.1800,-80.4900,1.0,24.9,11111222 
ENP,ioos.station.NOAA.NDBC:DKKF1:1,2017-03-13T07:00:00Z,25.1800,-80.4900,1.0,24.7,11111222 
ENP,ioos.station.NOAA.NDBC:DKKF1:1,2017-03-13T08:00:00Z,25.1800,-80.4900,1.0,24.6,11111222 
ENP,ioos.station.NOAA.NDBC:DKKF1:1,2017-03-13T10:00:00Z,25.1800,-80.4900,1.0,24.4,11111222 
ENP,ioos.station.NOAA.NDBC:DKKF1:1,2017-03-13T11:00:00Z,25.1800,-80.4900,1.0,24.2,11111222 
ENP,ioos.station.NOAA.NDBC:DKKF1:1,2017-03-13T12:00:00Z,25.1800,-80.4900,1.0,24.28,2 
ENP,ioos.station.NOAA.NDBC:DKKF1:1,2017-03-13T13:00:00Z,25.1800,-80.4900,1.0,24.31,2 
ENP,ioos.station.NOAA.NDBC:DKKF1:1,2017-03-13T14:00:00Z,25.1800,-80.4900,1.0,24.35,2 
ENP,ioos.station.NOAA.NDBC:DKKF1:1,2017-03-13T15:00:00Z,25.1800,-80.4900,1.0,24.52,2 
ENP,ioos.station.NOAA.NDBC:DKKF1:1,2017-03-13T16:00:00Z,25.1800,-80.4900,1.0,24.7,2 
ENP,ioos.station.NOAA.NDBC:DKKF1:1,2017-03-13T17:00:00Z,25.1800,-80.4900,1.0,24.98,2 
ENP,ioos.station.NOAA.NDBC:DKKF1:1,2017-03-13T18:00:00Z,25.1800,-80.4900,1.0,25.31,2 
ENP,ioos.station.NOAA.NDBC:DKKF1:1,2017-03-13T19:00:00Z,25.1800,-80.4900,1.0,25.63,2 
ENP,ioos.station.NOAA.NDBC:DKKF1:1,2017-03-13T20:00:00Z,25.1800,-80.4900,1.0,25.82,2 
ENP,ioos.station.NOAA.NDBC:DKKF1:1,2017-03-13T21:00:00Z,25.1800,-80.4900,1.0,26.0,11111222 
ENP,ioos.station.NOAA.NDBC:DKKF1:1,2017-03-13T22:00:00Z,25.1800,-80.4900,1.0,26.0,11111222 
ENP,ioos.station.NOAA.NDBC:DKKF1:1,2017-03-13T23:00:00Z,25.1800,-80.4900,1.0,26.1,11111222 
ENP,ioos.station.NOAA.NDBC:DKKF1:1,2017-03-14T00:00:00Z,25.1800,-80.4900,1.0,26.0,11111222 
ENP,ioos.station.NOAA.NDBC:DKKF1:1,2017-03-14T03:00:00Z,25.1800,-80.4900,1.0,25.53,2 
ENP,ioos.station.NOAA.NDBC:DKKF1:1,2017-03-14T05:00:00Z,25.1800,-80.4900,1.0,25.41,2 
ENP,ioos.station.NOAA.NDBC:DKKF1:1,2017-03-14T06:00:00Z,25.1800,-80.4900,1.0,25.38,2 
ENP,ioos.station.NOAA.NDBC:DKKF1:1,2017-03-14T07:00:00Z,25.1800,-80.4900,1.0,25.31,2 
ENP,ioos.station.NOAA.NDBC:DKKF1:1,2017-03-14T08:00:00Z,25.1800,-80.4900,1.0,25.3,2 
ENP,ioos.station.NOAA.NDBC:DKKF1:1,2017-03-14T10:00:00Z,25.1800,-80.4900,1.0,25.06,2 
ENP,ioos.station.NOAA.NDBC:DKKF1:1,2017-03-14T11:00:00Z,25.1800,-80.4900,1.0,24.9,11111222 
ENP,ioos.station.NOAA.NDBC:DKKF1:1,2017-03-14T12:00:00Z,25.1800,-80.4900,1.0,24.8,11111222 
ENP,ioos.station.NOAA.NDBC:DKKF1:1,2017-03-14T13:00:00Z,25.1800,-80.4900,1.0,24.72,2 
ENP,ioos.station.NOAA.NDBC:DKKF1:1,2017-03-14T14:00:00Z,25.1800,-80.4900,1.0,24.71,2 
ENP,ioos.station.NOAA.NDBC:DKKF1:1,2017-03-14T15:00:00Z,25.1800,-80.4900,1.0,24.83,2 
ENP,ioos.station.NOAA.NDBC:DKKF1:1,2017-03-14T16:00:00Z,25.1800,-80.4900,1.0,25.07,2 